This is the latest recevied weather packets stored in our database for station/object KG4AGD. If no packets are shown the sender has not sent any weather packets the latest 10 day(s).
| Time | Temp. | Humidity | Pressure | Rain* | Wind** | Luminosity | Snow |
|---|---|---|---|---|---|---|---|
| 1777818568 | 14.44° C | 51% | 1020.6 hPa | 0.25 mm | - | - | - |
| 1777817056 | 14.44° C | 56% | 1020.6 hPa | 0.25 mm | - | - | - |
| 1777815545 | 13.89° C | 65% | 1020.6 hPa | 0.25 mm | - | - | - |
| 1777813731 | 12.78° C | 69% | 1020.6 hPa | 0.25 mm | - | - | - |
| 1777813127 | 12.22° C | 76% | 1020.6 hPa | 0.25 mm | - | - | - |
| 1777811918 | 11.67° C | 75% | 1020.6 hPa | 0.25 mm | - | - | - |
| 1777809802 | 9.44° C | 84% | 1020.3 hPa | 0.25 mm | - | - | - |
| 1777809500 | 9.44° C | 82% | 1020.3 hPa | 0.25 mm | - | - | - |
| 1777806474 | 6.67° C | 94% | 1019.3 hPa | 0.25 mm | - | - | - |
| 1777806172 | 6.11° C | 97% | 1019.3 hPa | 0.25 mm | - | - | - |
| 1777804660 | 5° C | 100% | 1018.9 hPa | 0.25 mm | - | - | - |
| 1777804358 | 5° C | 100% | 1018.9 hPa | 0.25 mm | - | - | - |
| 1777804056 | 5° C | 100% | 1018.6 hPa | 0.25 mm | - | - | - |
| 1777803754 | 5° C | 100% | 1018.6 hPa | 0.25 mm | - | - | - |
| 1777803452 | 5° C | 100% | 1018.6 hPa | 0.25 mm | - | - | - |
| 1777803150 | 5° C | 100% | 1018.6 hPa | 0.25 mm | - | - | - |
| 1777802847 | 5° C | 100% | 1018.2 hPa | 0.25 mm | - | - | - |
| 1777802545 | 5° C | 100% | 1018.2 hPa | 0.25 mm | - | - | - |
| 1777802243 | 5° C | 100% | 1018.2 hPa | 0.25 mm | - | - | - |
| 1777801941 | 5° C | 100% | 1018.2 hPa | 0.25 mm | - | - | - |
| 1777801638 | 5° C | 100% | 1017.9 hPa | 0.25 mm | - | - | - |
| 1777801337 | 5° C | 100% | 1017.9 hPa | 0.25 mm | - | - | - |
| 1777801034 | 5° C | 100% | 1017.9 hPa | 0.25 mm | - | - | - |
| 1777800732 | 5° C | 100% | 1017.9 hPa | 0.25 mm | - | - | - |
| 1777800430 | 5° C | 100% | 1017.9 hPa | 0.25 mm | - | - | - |
* Rain since midnight (hover to see other rain measurements)
** Current wind speed in m/s (hover to see current wind gust speed)